World > North America > United States > Pennsylvania

Hourly Temple, PA Regional Weather

Feedback E-mail the Weather

Latest News

Temple, PA Weather Maps

°F °C°F °C
Temple Weather Map
UTC Time: 5/26/2022, 08:30
Your Time:

Temple, PA Regional Weather

Expires:202205260900;;599581
ASUS41 KPHI 260814
RWRPHI

REGIONAL WEATHER ROUNDUP
NATIONAL WEATHER SERVICE MOUNT HOLLY NJ
400 AM EDT THU MAY 26 2022

NOTE:  "FAIR" INDICATES FEW OR NO CLOUDS BELOW 12,000 FEET WITH NO
SIGNIFICANT WEATHER AND/OR OBSTRUCTIONS TO VISIBILITY.

 * = STATION DOES NOT REPORT PRECIPITATION (E.G. RAIN, SNOW, ETC.) 
        OR FOG.


PAZ043-044-047-054-055-060>062-066>071-260900-
EASTERN PENNSYLVANIA
  
CITY           SKY/WX    TMP DP  RH WIND       PRES   REMARKS
PHILADELPHIA   MOCLDY    56  47  71 E7        30.31F                  
NORTH PHILA    CLOUDY    53  48  83 NE5       30.32S                  
BLUE BELL*     MOCLDY    51  47  83 CALM      30.31S                  
DOYLESTOWN     CLOUDY    52  43  71 CALM      30.30F                  
QUAKERTOWN*    CLOUDY    54  43  66 CALM      30.31R                  
PERKASIE*      CLOUDY    52  45  76 CALM      30.32R                  
POTTSTOWN      CLOUDY    54  41  61 E3        30.32S                  
LANCASTER      CLOUDY    57  45  64 E5        30.29S                  
COATESVILLE    MOCLDY    54  46  76 CALM      30.31S                  
WEST CHESTER   PTSUNNY   54  45  71 CALM      30.31S                  
READING        CLOUDY    59  43  55 SE5       30.29R                  
ALLENTOWN      CLOUDY    55  39  54 SE5       30.30S                  
QN CITY/ALNTWN CLOUDY    55  41  58 CALM      30.32R                  
MOUNT POCONO   MOCLDY    49  36  61 SE7       30.28F                  
HAZLETON       CLOUDY    54  41  62 SE3       30.31S                  
LEHIGHTON      CLOUDY    55  39  54 CALM      30.31R                  
WILKES BARRE   MOCLDY    59  35  40 SW8       30.26S                  

$$

SKY/WX - Weather  TMP - Temperature  DP - Dew Point  RH - Humidity
WIND - Wind Direction/Speed PRES - Barometric Pressure VSB - Visibility
WCI - Wind Chill Index E13G22 Wind - East Wind 13 mph/Gusts of 22 mph

Trending Headlines

Temple Radar Loop



Temple Quick Facts


National Two Day Weather Forecast


E-mail the Temple Weather Forecast

Voice your opinion or tell us about page issues...